Location: Newark
(48.1500°N, 2.9667°W)
Time: 14:59:04
(UTC+00:00)

Transit 2A - Pass Details

Date: 30 January 2020
Orbit: 600 x 959 km, 66.7° (Epoch: 22 February)

Event Time Altitude Azimuth Distance (km) Brightness Sun altitude
Rises 05:24:18 0° 305° (NW) 3,052 - -23.2°
Reaches altitude 10° 05:28:26 10° 270° (W) 2,221 - -22.5°
Maximum altitude 05:29:46 11° 255° (WSW) 2,180 - -22.3°
Drops below altitude 10° 05:31:08 10° 239° (WSW) 2,279 - -22.1°
Sets 05:35:36 0° 205° (SSW) 3,306 - -21.3°
